Location: Albuquerque Trailhead
(34.7934°N, 106.3736°W)
Time: 13:35:40
(UTC+00:00)

Cosmos 1933 - Pass Details

Date: 20 June 2021
Orbit: 547 x 562 km, 82.5° (Epoch: 30 July)

Event Time Altitude Azimuth Distance (km) Brightness Sun altitude
Rises 09:03:24 0° 360° (N) 2,756 7.8 -25.6°
Reaches altitude 10° 09:05:39 10° 6° (N) 1,858 6.9 -25.3°
Maximum altitude 09:09:36 47° 81° (E) 750 4.1 -24.9°
Enters shadow 09:09:56 46° 97° (E) 764 4.1 -24.9°
